Flag for Norway Weather past 2 weeks in Elverum, Norway

Now
51 °F

Cool.


Feels Like: 51 °F
Forecast: 51 / 80 °F
Wind: 1 mph from Northwest

Location: Haugedalshogda

Current Time: Jun 30, 2015 at 5:58:38 AM

Latest Report: Jun 30, 2015 at 5:00 AM


Visibility: N/A

Pressure: 30.06 "Hg

Humidity: 92%

Dew point: 49 °F

Location of ElverumLocation

Historic Weather in Elverum — Graph

°F

Elverum temperature yesterday

Maximum temperature yesterday: 68 °F (at 3:00 PM)
Minimum temperature yesterday: 54 °F (at 4:00 AM)
Average temperature yesterday: 59 °F

Past Weeks' High & Low Weather Summary

 TemperatureHumidityPressure
High73 °F (Jun 28, 3:00 PM)95% (Jun 22, 5:00 AM)30.12 "Hg (Jun 22, 5:00 AM)
Low23 °F (Jun 15, 4:00 AM)18% (Jun 16, 7:00 PM)29.63 "Hg (Jun 18, 1:00 PM)
Average54 °F66%29.87 "Hg
* Reported Jun 15 4:00 AM — Jun 30 4:00 AM, Elverum, Weather by CustomWeather, © 2015

Note: Actual official high and low records may vary slightly from our data, if they occured in-between our weather recording intervals... More about our weather records

Advertising

Elverum weather history for previous 24 hours

 ConditionsComfort  
Time TempWeatherWind HumidityBarometerVisibility
4:00 AM
Tue, Jun 30
51 °FCool.1 mph91%30.05 "HgN/A
3:00 AM52 °FCool.2 mph90%30.04 "HgN/A
2:00 AM54 °FCool.5 mph90%30.03 "HgN/A
1:00 AM55 °FCool.2 mph92%30.01 "HgN/A
12:00 AM55 °FCool.2 mph92%29.98 "HgN/A
10:00 PM
Mon, Jun 29
56 °FCool.3 mph89%29.94 "HgN/A
9:00 PM56 °FCool.2 mph88%29.92 "HgN/A
8:00 PM58 °FCool.6 mph80%29.91 "HgN/A
7:00 PM63 °FMild.3 mph76%29.88 "HgN/A
6:00 PM62 °FCool.2 mph79%29.87 "HgN/A
5:00 PM63 °FMild.5 mph72%29.86 "HgN/A
4:00 PM63 °FMild.2 mph72%29.87 "HgN/A
3:00 PM68 °FMild.2 mph53%29.85 "HgN/A
2:00 PM66 °FMild.3 mph56%29.85 "HgN/A
1:00 PM65 °FMild.3 mph61%29.85 "HgN/A
12:00 PM63 °FMild.2 mph68%29.86 "HgN/A
11:00 AM59 °FCool.1 mph73%29.87 "HgN/A
10:00 AM58 °FCool.2 mph81%29.87 "HgN/A
9:00 AM56 °FCool.2 mph87%29.87 "HgN/A
8:00 AM56 °FCool.2 mph89%29.87 "HgN/A
7:00 AM56 °FCool.2 mph91%29.87 "HgN/A
6:00 AM54 °FCool.1 mph92%29.85 "HgN/A
5:00 AM54 °FCool.1 mph90%29.86 "HgN/A
Weather by CustomWeather, © 2015

See weather overviewHow to use our weather pages